This demonstration page uses our WeatherBlox Daily Observations layout. Learn more.

41.55636, -103.73856

Hourly Observations for December 8, 2015

Temp ( °F °C ) Dew Point ( °F °C ) Humidity (%) Winds ( mph kmh ) Pressure ( in mb ) Visibility ( mi km ) Precip ( " mm )
12:14 am 00:14 Mostly Clear 55 13 27 -3 33 33 W 31 50 29.65 1004 8 12.87472 0 0
12:53 am 00:53 Clear 54 12.2 28 -2.2 37 37 W 15 24 29.72 1007 10 16.0934 0 0
1:53 am 01:53 Clear 52 11.1 31 -0.6 45 45 W 24 39 29.72 1006 10 16.0934 0 0
2:53 am 02:53 Clear 50 10 31 -0.6 48 48 W 22 35 29.72 1007 10 16.0934 0 0
3:53 am 03:53 Clear 49 9.4 31 -0.6 50 50 WNW 18 30 29.76 1008 10 16.0934 0 0
4:53 am 04:53 Mostly Clear 49 9.4 31 -0.6 50 50 WNW 13 20 29.79 1009 10 16.0934 0 0
5:53 am 05:53 Clear 50 10 32 0 50 50 WNW 18 30 29.79 1009 10 16.0934 0 0
6:53 am 06:53 Clear 50 10 32 0 50 50 WNW 16 26 29.82 1010 10 16.0934 0 0
7:53 am 07:53 Cloudy 50 10 33 0.6 52 52 WNW 15 24 29.85 1011 10 16.0934 0 0
8:53 am 08:53 Sunny 52 11.1 33 0.6 49 49 WNW 17 28 29.87 1011 10 16.0934 0 0
9:53 am 09:53 Sunny 55 12.8 32 0 42 42 WNW 20 31 29.88 1012 10 16.0934 0 0
10:53 am 10:53 Sunny 57 13.9 31 -0.6 37 37 WNW 21 33 29.87 1012 10 16.0934 0 0
11:53 am 11:53 Sunny 58 14.4 28 -2.2 32 32 WNW 21 33 29.85 1011 10 16.0934 0 0
12:53 pm 12:53 Mostly Cloudy 60 15.6 28 -2.2 30 30 WNW 17 28 29.84 1011 10 16.0934 0 0
1:53 pm 13:53 Sunny 60 15.6 28 -2.2 30 30 NW 15 24 29.83 1010 10 16.0934 0 0
2:53 pm 14:53 Sunny 59 15 27 -2.8 29 29 NW 14 22 29.83 1010 10 16.0934 0 0
3:53 pm 15:53 Sunny 56 13.3 30 -1.1 37 37 W 15 24 29.85 1011 10 16.0934 0 0
4:53 pm 16:53 Clear 52 11.1 31 -0.6 45 45 WNW 15 24 29.87 1012 10 16.0934 0 0
5:53 pm 17:53 Clear 49 9.4 31 -0.6 50 50 WNW 12 19 29.88 1012 10 16.0934 0 0
6:53 pm 18:53 Clear 47 8.3 31 -0.6 54 54 WNW 10 17 29.89 1012 10 16.0934 0 0
7:53 pm 19:53 Clear 44 6.7 31 -0.6 60 60 NW 7 11 29.9 1013 10 16.0934 0 0
8:53 pm 20:53 Clear 40 4.4 30 -1.1 68 68 NW 5 7 29.91 1013 10 16.0934 0 0
9:53 pm 21:53 Clear 42 5.6 31 -0.6 65 65 WNW 9 15 29.88 1012 10 16.0934 0 0
10:53 pm 22:53 Clear 38 3.3 30 -1.1 73 73 NW 8 13 29.89 1012 10 16.0934 0 0
11:53 pm 23:53 Clear 40 4.4 30 -1.1 68 68 NW 7 11 29.87 1011 10 16.0934 0 0

Powered by AerisWeather